Weather History for KRCA - May, 2013

Change the Weather History Date:

Saturday, May 25, 2013

  Actual Average Record
Temperature  
Mean Temperature 66 °F -  
Max Temperature 83 °F 67 °F 83 °F (2013)
Min Temperature 50 °F 46 °F 37 °F (2004)
Cooling Degree Days 2    
Growing Degree Days 16 (Base 50)    
Moisture  
Dew Point 55 °F    
Average Humidity 62    
Maximum Humidity 85    
Minimum Humidity 40    
Precipitation  
Precipitation 0.00 in - - ()
Sea Level Pressure  
Sea Level Pressure 29.85 in    
Wind  
Wind Speed 10 mph (SE)    
Max Wind Speed 20 mph    
Max Gust Speed 30 mph    
Visibility 10 miles    
Events Thunderstorm    
Averages and records for this station are not official NWS values.
T = Trace of Precipitation, MM = Missing Value Source: NWS Daily Summary

Daily Weather History Graph

Daily Weather History Graph

Search for Another Location

Airport or City:

Trip Planner

Search our weather history database for the weather conditions in past years. The results will help you decide how hot, cold, wet, or windy it might be!

Date:

Astronomy

May. 25, 2013 Rise Set
Actual Time 5:16 AM MDT 8:22 PM MDT
Civil Twilight 4:41 AM MDT 8:57 PM MDT
Nautical Twilight 3:56 AM MDT 9:42 PM MDT
Astronomical Twilight 3:03 AM MDT 10:36 PM MDT
Moon 9:12 PM MDT (5/25) 5:46 AM MDT (5/25)
Length of Visible Light 16h 16m
Length of Day
15h 06m
Waxing Gibbous, 99% of the Moon is Illuminated
May 25
Waxing Gibbous
May 31
Last Quarter
Jun 8
New
Jun 16
First Quarter
Jun 23
Full

Hourly Weather History & Observations

Time (MDT) Temp. Heat Index Dew Point Humidity Pressure Visibility Wind Dir Wind Speed Gust Speed Precip Events Conditions
12:58 AM 59.5 °F - 49.5 °F 69% 29.89 in 10.0 mi NW 10.4 mph - N/A   Clear
1:58 AM 54.3 °F - 48.6 °F 81% 29.89 in 10.0 mi NW 8.1 mph - N/A   Clear
2:58 AM 53.8 °F - 47.7 °F 80% 29.89 in 10.0 mi NNW 8.1 mph - N/A   Clear
3:58 AM 55.2 °F - 48.4 °F 78% 29.90 in 10.0 mi NNW 4.6 mph - N/A   Clear
4:58 AM 50.5 °F - 46.2 °F 85% 29.92 in 10.0 mi NW 4.6 mph - N/A   Clear
5:58 AM 53.8 °F - 46.9 °F 78% 29.93 in 10.0 mi Variable 2.3 mph - N/A   Clear
6:58 AM 56.5 °F - 51.4 °F 83% 29.94 in 10.0 mi NW 3.5 mph - N/A   Partly Cloudy
7:58 AM 61.0 °F - 52.7 °F 74% 29.94 in 10.0 mi SSW 2.3 mph - N/A   Clear
8:58 AM 66.2 °F - 55.8 °F 69% 29.92 in 10.0 mi Variable 3.5 mph - N/A   Clear
9:58 AM 70.9 °F - 57.9 °F 63% 29.89 in 10.0 mi SSE 13.8 mph - N/A   Clear
10:58 AM 72.5 °F - 59.0 °F 62% 29.88 in 10.0 mi SSE 13.8 mph 23.0 mph N/A   Clear
11:58 AM 75.0 °F - 57.7 °F 55% 29.89 in 10.0 mi South 15.0 mph - N/A   Partly Cloudy
12:58 PM 75.9 °F - 57.2 °F 52% 29.87 in 10.0 mi SSE 13.8 mph 21.9 mph N/A   Scattered Clouds
1:58 PM 78.1 °F - 57.9 °F 50% 29.85 in 10.0 mi SE 15.0 mph - N/A   Scattered Clouds
2:44 PM 80.6 °F 81.1 °F 59.0 °F 48% 29.88 in 10.0 mi South 13.8 mph 19.6 mph N/A   Scattered Clouds
2:50 PM 80.6 °F 81.1 °F 59.0 °F 48% 29.88 in 10.0 mi SE 13.8 mph - N/A   Partly Cloudy
2:58 PM 80.1 °F 80.8 °F 59.2 °F 49% 29.82 in 10.0 mi SSE 15.0 mph - N/A   Partly Cloudy
3:31 PM 82.4 °F 82.0 °F 57.2 °F 42% 29.83 in 10.0 mi South 16.1 mph 21.9 mph N/A   Scattered Clouds
3:58 PM 83.1 °F 82.4 °F 56.7 °F 40% 29.78 in 10.0 mi SSE 17.3 mph 24.2 mph N/A   Mostly Cloudy
4:58 PM 81.7 °F 81.4 °F 56.5 °F 42% 29.77 in 10.0 mi SSE 19.6 mph 29.9 mph N/A   Partly Cloudy
5:57 PM 77.0 °F - 55.4 °F 47% 29.80 in 10.0 mi SE 16.1 mph 25.3 mph N/A Thunderstorm Thunderstorm
5:58 PM 77.0 °F - 55.4 °F 47% 29.75 in 10.0 mi SE 16.1 mph 25.3 mph N/A Thunderstorm Thunderstorm
6:12 PM 77.0 °F - 57.2 °F 50% 29.81 in 10.0 mi SE 17.3 mph - N/A Thunderstorm Mostly Cloudy
6:58 PM 75.9 °F - 57.6 °F 53% 29.78 in 10.0 mi ESE 13.8 mph - N/A Thunderstorm Clear
7:58 PM 73.4 °F - 58.6 °F 60% 29.78 in 10.0 mi East 18.4 mph 21.9 mph N/A   Mostly Cloudy
8:58 PM 69.8 °F - 58.6 °F 68% 29.78 in 10.0 mi ESE 18.4 mph - N/A   Clear
9:58 PM 67.6 °F - 59.0 °F 74% 29.76 in 10.0 mi ESE 12.7 mph - N/A   Clear
10:58 PM 65.1 °F - 58.8 °F 80% 29.78 in 10.0 mi SSE 4.6 mph - N/A   Clear
11:58 PM 64.8 °F - 58.6 °F 81% 29.78 in 10.0 mi East 4.6 mph - N/A   Clear